Overview Statistics Trail Chart Weather Telemetry Raw packets
 

This is the latest recevied weather packets stored in our database for station/object 4S6DRJ-13. If no packets are shown the sender has not sent any weather packets the latest 10 day(s).

<< 227 228 229 230 231 232 233 >>
Time Temp. Humidity Pressure Rain* Wind** Luminosity Snow
1788131386 27.78° C 83% 1009 hPa 0 mm 1.79 m/s, 267° 0 W/m² -
1788131325 27.78° C 83% 1009.1 hPa 0 mm 0.89 m/s, 214° 0 W/m² -
1788131264 27.78° C 83% 1009 hPa 0 mm 0.45 m/s, 255° 0 W/m² -
1788131203 27.78° C 83% 1008.9 hPa 0 mm 0.89 m/s, 260° 0 W/m² -
1788131142 27.78° C 83% 1009 hPa 0 mm 0.45 m/s, 215° 0 W/m² -
1788131082 27.78° C 83% 1009 hPa 0 mm 1.34 m/s, 255° 0 W/m² -
1788131020 27.78° C 83% 1009.1 hPa 0 mm 1.34 m/s, 275° 0 W/m² -
1788130959 27.78° C 83% 1008.9 hPa 0 mm 1.79 m/s, 233° 0 W/m² -
1788130898 27.78° C 84% 1009 hPa 0 mm 1.34 m/s, 261° 0 W/m² -
1788130837 27.78° C 84% 1009.1 hPa 0 mm 0.45 m/s, 263° 0 W/m² -
1788130776 27.78° C 84% 1009 hPa 0 mm 0.45 m/s, 227° 0 W/m² -
1788130715 27.78° C 84% 1009.1 hPa 0 mm 0.89 m/s, 272° 0 W/m² -
1788130667 27.78° C 84% 1008.9 hPa 0 mm 0.89 m/s, 269° 0 W/m² -
1788130593 27.78° C 84% 1009 hPa 0 mm 0.89 m/s, 200° 0 W/m² -
1788130532 27.78° C 84% 1009 hPa 0 mm 0.89 m/s, 247° 0 W/m² -
1788130471 27.78° C 84% 1009.1 hPa 0 mm 1.34 m/s, 108° 0 W/m² -
1788130410 27.78° C 84% 1009.1 hPa 0 mm 0.89 m/s, 209° 0 W/m² -
1788130349 27.78° C 84% 1009 hPa 0 mm 2.68 m/s, 151° 0 W/m² -
1788130288 27.78° C 84% 1009 hPa 0 mm 0.89 m/s, 239° 0 W/m² -
1788130227 27.78° C 84% 1008.9 hPa 0 mm 0.89 m/s, 186° 0 W/m² -
1788130166 27.78° C 84% 1008.8 hPa 0 mm 1.34 m/s, 302° 0 W/m² -
1788130105 27.78° C 84% 1009 hPa 0 mm 0.89 m/s, 15° 0 W/m² -
1788130045 27.78° C 84% 1008.9 hPa 0 mm 0 m/s 0 W/m² -
1788129983 27.78° C 84% 1008.9 hPa 0 mm 0.45 m/s, 218° 0 W/m² -
1788129922 27.78° C 84% 1008.9 hPa 0 mm 0.89 m/s, 316° 0 W/m² -

* Rain latest hour (hover to see other rain measurements)
** Current wind speed in m/s (hover to see current wind gust speed)